Regional Weather Roundup
Issued by NWS

Home | Current Version | Previous Version | Graphics & Text | Print | Product List | Glossary On
Versions: 1 2 3 4 5 6 7 8 9 10 11 12 13 14 15 16 17 18 19 20 21 22 23 24 25 26 27 28 29 30 31 32 33 34 35 36 37 38 39 40 41 42 43 44 45 46 47 48 49 50
608
ASUS44 KJAN 281903
RWRMS

MISSISSIPPI HOURLY WEATHER ROUNDUP
NATIONAL WEATHER SERVICE JACKSON MS
200 PM CDT THU AUG 28 2014

NOTE: "FAIR: INDICATES FEW OR NO CLOUDS BELOW 12,000 FEET WITH NO
SIGNIFICANT WEATHER AND/OR OBSTRUCTIONS TO VISIBILITY.

MSZ001>002-007>008-010>013-018>021-025>028-034>036-282000-
NORTHWEST MISSISSIPPI

CITY           SKY/WX    TMP DP  RH WIND       PRES   REMARKS
CLARKSDALE     FAIR      91  66  43 CALM      30.00F HX  94
CLEVELAND      MOCLDY    90  66  44 CALM      29.98F HX  92
GREENWOOD      SUNNY     93  61  34 CALM      29.99F HX  93
GREENVILLE     PTSUNNY   91  65  41 CALM      29.97F HX  93
GRENADA        FAIR      90  61  37 W3        29.99F
OLIVE BRANCH   PTSUNNY   90  66  45 SW6       30.00F HX  92
OXFORD         FAIR      88  63  42 SW5       30.01F
TUNICA         CLEAR     91  61  35 SE6       30.00F HX  91
$$

MSZ003>006-009-014>017-022>024-029>033-037>039-282000-
NORTHEAST MISSISSIPPI

CITY           SKY/WX    TMP DP  RH WIND       PRES   REMARKS
BELMONT        FAIR      90  68  48 SE5       30.01F HX  93
COLUMBUS AFB   SUNNY     93  59  32 SW9       29.98F HX  92
CORINTH        FAIR      91  63  38 SE7       29.99F HX  92
GOLDN TRIANGLE MOSUNNY   91  59  33 S7        30.00F HX  90
STARKVILLE     FAIR      91  55  29 N5        29.99F
TUPELO         MOSUNNY   92  59  33 S7        29.98F HX  91
$$

MSZ040-058-282000-
CENTRAL MISSISSIPPI

CITY           SKY/WX    TMP DP  RH WIND       PRES   REMARKS
JACKSON INTL   MOSUNNY   94  61  33 VRB5      29.98F HX  94
JACKSON HAWKNS MOSUNNY   93  63  36 VRB3      29.99F HX  94
MERIDIAN KEY   PTSUNNY   94  56  27 S8        29.98F HX  92
MERIDIAN NAS   MOSUNNY   94  56  27 VRB6      29.99F HX  92
RAYMOND        FAIR      93  86  79 S6        29.99F HX 125
VICKSBURG      PTSUNNY   92  66  42 CALM      29.97F HX  94
$$

MSZ059>079-282000-
SOUTH MISSISSIPPI

CITY           SKY/WX    TMP DP  RH WIND       PRES   REMARKS
BROOKHAVEN     FAIR      88  72  58 CALM      30.02F HX  94
COLUMBIA       FAIR      90  70  51 VRB3      29.98F HX  95
HATTIESBURG    PTSUNNY   94  65  38 CALM      29.99F HX  96
MCCOMB         CLOUDY    82  70  66 N10       30.00F
NATCHEZ        MOSUNNY   90  70  51 S9        29.98F HX  95
PINE BELT      PTSUNNY   90  66  45 SE7       30.01F HX  92
$$

MSZ080>082-282000-
COASTAL MISSISSIPPI

CITY           SKY/WX    TMP DP  RH WIND       PRES   REMARKS
BAY ST LOUIS   MOSUNNY  N/A N/A N/A E7        29.99F
BILOXI         PTSUNNY   90  73  57 SE9       29.99F HX  98
PASCAGOULA     CLOUDY    76  73  91 SW5       29.99F
GULFPORT       PTSUNNY   89  70  53 SE13      29.98F HX  94
$$



USA.gov is the U.S. government's official web portal to all federal, state and local government web resources and services.